| time (UTC) | temp F | wind direction | speed MPH | gust MPH | rain 1hr in | rain 24hr in | rain mn in | humidity % | barometer mb |
| 20260507201521 | 58 | 180 | 3.0 | 7.0 | 0.00 | 0.14 | 0.09 | 69 | 1005.6 |
| 20260507200519 | 58 | 135 | 2.0 | 4.0 | 0.00 | 0.14 | 0.09 | 71 | 1005.7 |
| 20260507195519 | 58 | 180 | 2.0 | 8.0 | 0.00 | 0.14 | 0.09 | 72 | 1005.8 |
| 20260507194601 | 57 | 135 | 4.0 | 9.0 | 0.00 | 0.14 | 0.09 | 74 | 1005.9 |
| 20260507193519 | 56 | 180 | 6.0 | 11.0 | 0.00 | 0.14 | 0.09 | 74 | 1005.8 |
| 20260507192521 | 57 | 180 | 4.0 | 12.0 | 0.00 | 0.14 | 0.09 | 72 | 1005.9 |
| 20260507191521 | 58 | 180 | 4.0 | 11.0 | 0.00 | 0.14 | 0.09 | 70 | 1005.9 |
| 20260507190523 | 59 | 180 | 3.0 | 13.0 | 0.00 | 0.14 | 0.09 | 67 | 1006.0 |
| 20260507185625 | 59 | 180 | 4.0 | 8.0 | 0.00 | 0.14 | 0.09 | 68 | 1006.1 |
| 20260507185021 | 59 | 180 | 4.0 | 10.0 | 0.00 | 0.14 | 0.09 | 66 | 1006.1 |
| 20260507184021 | 59 | 180 | 5.0 | 10.0 | 0.00 | 0.14 | 0.09 | 64 | 1006.1 |
| 20260507183021 | 59 | 180 | 5.0 | 11.0 | 0.00 | 0.14 | 0.09 | 66 | 1006.3 |
| 20260507182021 | 59 | 158 | 5.0 | 11.0 | 0.00 | 0.14 | 0.09 | 63 | 1006.5 |
| 20260507181024 | 59 | 158 | 5.0 | 9.0 | 0.00 | 0.14 | 0.09 | 61 | 1006.7 |
| 20260507180019 | 59 | 180 | 4.0 | 9.0 | 0.00 | 0.14 | 0.09 | 62 | 1006.6 |
| 20260507175020 | 58 | 180 | 3.0 | 11.0 | 0.00 | 0.14 | 0.09 | 64 | 1006.7 |
| 20260507174101 | 57 | 180 | 3.0 | 10.0 | 0.00 | 0.14 | 0.09 | 65 | 1006.6 |
| 20260507173543 | 56 | 203 | 1.0 | 6.0 | 0.00 | 0.14 | 0.09 | 66 | 1006.8 |
| 20260507172521 | 56 | 203 | 2.0 | 8.0 | 0.00 | 0.14 | 0.09 | 63 | 1006.9 |
| 20260507171521 | 57 | 203 | 4.0 | 10.0 | 0.00 | 0.14 | 0.09 | 61 | 1006.9 |
| 20260507170519 | 58 | 180 | 4.0 | 10.0 | 0.00 | 0.14 | 0.09 | 60 | 1006.8 |
| 20260507165522 | 58 | 203 | 3.0 | 9.0 | 0.00 | 0.14 | 0.09 | 62 | 1007.0 |
| 20260507164518 | 58 | 203 | 4.0 | 9.0 | 0.00 | 0.14 | 0.09 | 63 | 1007.1 |
| 20260507163523 | 59 | 203 | 3.0 | 8.0 | 0.00 | 0.14 | 0.09 | 63 | 1007.3 |
| 20260507162518 | 57 | 203 | 2.0 | 8.0 | 0.00 | 0.14 | 0.09 | 62 | 1007.4 |
| 20260507161521 | 57 | 180 | 3.0 | 7.0 | 0.00 | 0.14 | 0.09 | 65 | 1007.5 |
| 20260507160518 | 55 | 203 | 2.0 | 5.0 | 0.00 | 0.14 | 0.09 | 67 | 1007.6 |
| 20260507155519 | 56 | 180 | 3.0 | 10.0 | 0.00 | 0.14 | 0.09 | 67 | 1007.7 |
| 20260507154518 | 56 | 180 | 5.0 | 10.0 | 0.00 | 0.14 | 0.09 | 67 | 1007.7 |
| 20260507153518 | 57 | 180 | 2.0 | 9.0 | 0.00 | 0.14 | 0.09 | 66 | 1007.9 |
| 20260507152605 | 57 | 90 | 2.0 | 10.0 | 0.00 | 0.14 | 0.09 | 64 | 1007.9 |
| 20260507151518 | 57 | 90 | 7.0 | 10.0 | 0.00 | 0.14 | 0.09 | 62 | 1007.9 |
| 20260507150518 | 57 | 90 | 6.0 | 11.0 | 0.00 | 0.14 | 0.09 | 60 | 1008.0 |
| 20260507145518 | 57 | 90 | 2.0 | 8.0 | 0.00 | 0.14 | 0.09 | 63 | 1008.1 |
| 20260507144520 | 56 | 23 | 1.0 | 3.0 | 0.00 | 0.14 | 0.09 | 65 | 1008.1 |
| 20260507143520 | 55 | 23 | 3.0 | 8.0 | 0.00 | 0.14 | 0.09 | 64 | 1008.2 |
| 20260507142518 | 55 | 45 | 1.0 | 6.0 | 0.00 | 0.14 | 0.09 | 67 | 1008.1 |
| 20260507141540 | 54 | 45 | 3.0 | 9.0 | 0.00 | 0.14 | 0.09 | 68 | 1008.1 |
| 20260507140604 | 54 | 23 | 3.0 | 8.0 | 0.00 | 0.14 | 0.09 | 69 | 1008.2 |
| 20260507135520 | 54 | 293 | 2.0 | 10.0 | 0.00 | 0.14 | 0.09 | 72 | 1008.2 |
| 20260507134518 | 53 | 338 | 3.0 | 9.0 | 0.00 | 0.14 | 0.09 | 74 | 1008.2 |
| 20260507133518 | 53 | 338 | 3.0 | 9.0 | 0.00 | 0.14 | 0.09 | 73 | 1008.2 |
| 20260507132520 | 52 | 0 | 3.0 | 10.0 | 0.00 | 0.14 | 0.09 | 75 | 1008.4 |
| 20260507131518 | 52 | 315 | 4.0 | 9.0 | 0.00 | 0.14 | 0.09 | 77 | 1008.6 |
| 20260507130518 | 51 | 293 | 1.0 | 5.0 | 0.00 | 0.14 | 0.09 | 81 | 1008.7 |
| 20260507125518 | 50 | 315 | 4.0 | 9.0 | 0.00 | 0.14 | 0.09 | 82 | 1008.9 |
| 20260507124540 | 49 | 315 | 1.0 | 5.0 | 0.00 | 0.14 | 0.09 | 84 | 1008.6 |
| 20260507123518 | 49 | 315 | 2.0 | 9.0 | 0.00 | 0.14 | 0.09 | 84 | 1008.6 |
| 20260507122518 | 49 | 315 | 4.0 | 11.0 | 0.00 | 0.14 | 0.09 | 84 | 1008.5 |
| 20260507121601 | 48 | 315 | 3.0 | 9.0 | 0.00 | 0.14 | 0.09 | 85 | 1008.5 |
| 20260507120518 | 48 | 315 | 1.0 | 5.0 | 0.00 | 0.14 | 0.09 | 86 | 1008.5 |
| 20260507115518 | 48 | 315 | 3.0 | 9.0 | 0.00 | 0.14 | 0.09 | 87 | 1008.4 |
| 20260507114538 | 48 | 315 | 3.0 | 10.0 | 0.01 | 0.14 | 0.09 | 87 | 1008.4 |
| 20260507113518 | 48 | 315 | 3.0 | 8.0 | 0.01 | 0.14 | 0.09 | 87 | 1008.3 |
| 20260507112518 | 48 | 315 | 1.0 | 5.0 | 0.01 | 0.14 | 0.09 | 87 | 1007.9 |
| 20260507111518 | 48 | 315 | 2.0 | 5.0 | 0.01 | 0.14 | 0.09 | 88 | 1008.2 |
| 20260507110520 | 47 | 315 | 1.0 | 4.0 | 0.02 | 0.14 | 0.09 | 88 | 1008.2 |
| 20260507105518 | 47 | 0.0 | 2.0 | 0.03 | 0.14 | 0.09 | 87 | 1008.5 | |
| 20260507104542 | 47 | 0.0 | 4.0 | 0.02 | 0.13 | 0.08 | 87 | 1008.0 | |
| 20260507103522 | 47 | 315 | 1.0 | 7.0 | 0.04 | 0.13 | 0.08 | 87 | 1008.1 |
| 20260507102557 | 48 | 315 | 2.0 | 9.0 | 0.05 | 0.13 | 0.08 | 87 | 1008.2 |
| 20260507102020 | 48 | 315 | 1.0 | 6.0 | 0.06 | 0.13 | 0.08 | 87 | 1008.0 |
| 20260507101018 | 48 | 315 | 2.0 | 7.0 | 0.05 | 0.12 | 0.07 | 87 | 1008.0 |
| 20260507100018 | 48 | 315 | 3.0 | 9.0 | 0.04 | 0.11 | 0.06 | 86 | 1007.8 |
| 20260507095018 | 48 | 315 | 3.0 | 8.0 | 0.04 | 0.11 | 0.06 | 86 | 1007.8 |
| 20260507094018 | 48 | 315 | 3.0 | 9.0 | 0.04 | 0.10 | 0.05 | 85 | 1007.7 |
| 20260507093018 | 48 | 315 | 5.0 | 13.0 | 0.02 | 0.08 | 0.03 | 85 | 1007.6 |
| 20260507092018 | 49 | 315 | 7.0 | 12.0 | 0.01 | 0.07 | 0.02 | 85 | 1007.9 |
| 20260507091040 | 49 | 315 | 5.0 | 12.0 | 0.01 | 0.07 | 0.02 | 85 | 1007.5 |
| 20260507090018 | 49 | 293 | 4.0 | 10.0 | 0.02 | 0.07 | 0.02 | 86 | 1007.5 |
| 20260507085040 | 50 | 315 | 3.0 | 13.0 | 0.02 | 0.07 | 0.02 | 86 | 1007.1 |
| 20260507084018 | 50 | 315 | 4.0 | 14.0 | 0.01 | 0.06 | 0.01 | 85 | 1007.0 |
| 20260507083018 | 50 | 315 | 7.0 | 15.0 | 0.01 | 0.06 | 0.01 | 84 | 1007.0 |
| 20260507082116 | 50 | 315 | 8.0 | 18.0 | 0.01 | 0.06 | 0.01 | 84 | 1007.1 |
| 20260507081020 | 51 | 315 | 7.0 | 15.0 | 0.01 | 0.06 | 0.01 | 84 | 1007.0 |
| 20260507080030 | 51 | 315 | 9.0 | 19.0 | 0.00 | 0.05 | 0.00 | 83 | 1006.8 |
| 20260507075020 | 52 | 315 | 6.0 | 14.0 | 0.00 | 0.05 | 0.00 | 84 | 1006.9 |
| 20260507074020 | 52 | 315 | 5.0 | 14.0 | 0.00 | 0.05 | 0.00 | 84 | 1006.7 |
| 20260507073040 | 52 | 293 | 5.0 | 13.0 | 0.00 | 0.05 | 0.00 | 85 | 1006.4 |
| 20260507072018 | 52 | 293 | 3.0 | 11.0 | 0.00 | 0.05 | 0.00 | 86 | 1006.6 |
| 20260507071019 | 53 | 293 | 3.0 | 9.0 | 0.00 | 0.05 | 0.00 | 87 | 1006.6 |
| 20260507070021 | 53 | 293 | 4.0 | 10.0 | 0.00 | 0.05 | 0.00 | 88 | 1006.6 |
| 20260507065108 | 53 | 293 | 2.0 | 8.0 | 0.00 | 0.05 | 0.00 | 88 | 1006.6 |
| 20260507064018 | 53 | 315 | 3.0 | 9.0 | 0.00 | 0.05 | 0.00 | 88 | 1006.4 |
| 20260507063040 | 53 | 315 | 3.0 | 10.0 | 0.00 | 0.05 | 0.00 | 89 | 1006.4 |
| 20260507062042 | 53 | 315 | 3.0 | 10.0 | 0.00 | 0.05 | 0.00 | 89 | 1006.7 |
| 20260507061020 | 53 | 293 | 1.0 | 5.0 | 0.00 | 0.05 | 0.00 | 89 | 1006.6 |
| 20260507060022 | 53 | 315 | 4.0 | 9.0 | 0.00 | 0.05 | 0.00 | 90 | 1006.9 |
| 20260507055547 | 53 | 315 | 4.0 | 10.0 | 0.00 | 0.05 | 0.00 | 90 | 1007.0 |
| 20260507054521 | 53 | 315 | 4.0 | 13.0 | 0.00 | 0.05 | 0.00 | 91 | 1006.8 |
| 20260507053520 | 53 | 315 | 6.0 | 13.0 | 0.00 | 0.05 | 0.00 | 92 | 1006.5 |
| 20260507052519 | 53 | 315 | 5.0 | 14.0 | 0.00 | 0.05 | 0.00 | 92 | 1006.7 |
| 20260507051521 | 55 | 315 | 6.0 | 16.0 | 0.00 | 0.05 | 0.00 | 92 | 1006.6 |
| 20260507050521 | 58 | 293 | 1.0 | 7.0 | 0.00 | 0.05 | 0.00 | 93 | 1006.6 |
| 20260507045521 | 57 | 293 | 1.0 | 8.0 | 0.00 | 0.05 | 0.00 | 93 | 1006.3 |
| 20260507044543 | 56 | 270 | 1.0 | 3.0 | 0.00 | 0.05 | 0.00 | 93 | 1006.5 |
| 20260507043519 | 56 | 270 | 1.0 | 4.0 | 0.00 | 0.05 | 0.00 | 93 | 1006.5 |
| 20260507042519 | 56 | 270 | 2.0 | 8.0 | 0.00 | 0.05 | 0.00 | 93 | 1006.4 |
| 20260507041519 | 56 | 270 | 1.0 | 7.0 | 0.00 | 0.05 | 0.00 | 93 | 1006.7 |
| 20260507040519 | 55 | 270 | 2.0 | 7.0 | 0.00 | 0.05 | 0.00 | 93 | 1006.6 |
| 20260507040021 | 55 | 270 | 1.0 | 6.0 | 0.00 | 0.05 | 0.05 | 93 | 1006.6 |
| 20260507035020 | 55 | 270 | 4.0 | 11.0 | 0.00 | 0.05 | 0.05 | 92 | 1006.8 |
| 20260507034018 | 55 | 270 | 3.0 | 11.0 | 0.00 | 0.05 | 0.05 | 92 | 1006.6 |
| 20260507033018 | 55 | 248 | 3.0 | 10.0 | 0.00 | 0.05 | 0.05 | 92 | 1006.3 |
| 20260507032017 | 55 | 270 | 3.0 | 11.0 | 0.00 | 0.05 | 0.05 | 92 | 1006.0 |
| 20260507031018 | 55 | 270 | 3.0 | 10.0 | 0.00 | 0.05 | 0.05 | 92 | 1006.0 |
| 20260507030018 | 55 | 270 | 6.0 | 14.0 | 0.00 | 0.05 | 0.05 | 92 | 1005.9 |
| 20260507025059 | 55 | 270 | 5.0 | 15.0 | 0.00 | 0.05 | 0.05 | 92 | 1006.1 |
| 20260507024018 | 56 | 270 | 3.0 | 13.0 | 0.00 | 0.05 | 0.05 | 92 | 1006.1 |
| 20260507023020 | 56 | 248 | 2.0 | 8.0 | 0.00 | 0.05 | 0.05 | 92 | 1006.1 |
| 20260507022019 | 55 | 270 | 3.0 | 12.0 | 0.00 | 0.05 | 0.05 | 92 | 1006.3 |
| 20260507021331 | 55 | 225 | 3.0 | 11.0 | 0.00 | 0.05 | 0.05 | 92 | 1006.1 |
| 20260507020517 | 55 | 248 | 3.0 | 12.0 | 0.00 | 0.05 | 0.05 | 92 | 1006.4 |
| 20260507020008 | 55 | 248 | 3.0 | 14.0 | 0.00 | 0.05 | 0.05 | 92 | 1006.3 |
| 20260507015020 | 55 | 225 | 5.0 | 15.0 | 0.00 | 0.05 | 0.05 | 92 | 1006.5 |
| 20260507014019 | 55 | 248 | 4.0 | 12.0 | 0.00 | 0.05 | 0.05 | 92 | 1006.4 |
| 20260507013040 | 55 | 248 | 5.0 | 18.0 | 0.00 | 0.05 | 0.05 | 92 | 1006.6 |
| 20260507012019 | 55 | 248 | 4.0 | 13.0 | 0.00 | 0.05 | 0.05 | 92 | 1006.5 |
| 20260507011019 | 55 | 248 | 6.0 | 18.0 | 0.01 | 0.05 | 0.05 | 92 | 1006.7 |
| 20260507010021 | 55 | 248 | 5.0 | 14.0 | 0.01 | 0.05 | 0.05 | 92 | 1006.6 |
| 20260507005019 | 54 | 248 | 6.0 | 16.0 | 0.01 | 0.05 | 0.05 | 92 | 1006.7 |
| 20260507004026 | 54 | 248 | 5.0 | 16.0 | 0.02 | 0.05 | 0.05 | 92 | 1006.6 |
| 20260507003101 | 53 | 225 | 5.0 | 20.0 | 0.02 | 0.05 | 0.05 | 91 | 1006.6 |
| 20260507002019 | 53 | 225 | 3.0 | 12.0 | 0.02 | 0.05 | 0.05 | 91 | 1006.8 |
| 20260507001019 | 53 | 225 | 5.0 | 14.0 | 0.01 | 0.04 | 0.04 | 92 | 1006.8 |
| 20260507000019 | 53 | 248 | 5.0 | 14.0 | 0.01 | 0.04 | 0.04 | 91 | 1006.8 |
| 20260506235023 | 53 | 225 | 4.0 | 13.0 | 0.01 | 0.04 | 0.04 | 91 | 1006.7 |
| 20260506234019 | 54 | 225 | 4.0 | 16.0 | 0.00 | 0.03 | 0.03 | 91 | 1006.8 |
| 20260506233019 | 53 | 225 | 4.0 | 10.0 | 0.00 | 0.03 | 0.03 | 91 | 1006.9 |
| 20260506232021 | 53 | 225 | 4.0 | 15.0 | 0.00 | 0.03 | 0.03 | 91 | 1006.8 |
| 20260506231021 | 54 | 225 | 4.0 | 13.0 | 0.01 | 0.03 | 0.03 | 90 | 1007.0 |
| 20260506230041 | 54 | 225 | 3.0 | 12.0 | 0.01 | 0.03 | 0.03 | 91 | 1006.9 |
| 20260506225010 | 54 | 225 | 5.0 | 10.0 | 0.01 | 0.03 | 0.03 | 91 | 1007.0 |
| 20260506224603 | 54 | 225 | 4.0 | 12.0 | 0.01 | 0.03 | 0.03 | 90 | 1007.1 |
| 20260506223541 | 54 | 225 | 4.0 | 12.0 | 0.01 | 0.03 | 0.03 | 90 | 1007.3 |
| 20260506222519 | 55 | 225 | 4.0 | 9.0 | 0.01 | 0.03 | 0.03 | 90 | 1007.3 |
| 20260506221541 | 55 | 225 | 4.0 | 12.0 | 0.01 | 0.02 | 0.02 | 90 | 1007.4 |
| 20260506220524 | 55 | 248 | 5.0 | 13.0 | 0.02 | 0.02 | 0.02 | 89 | 1007.5 |
| 20260506215519 | 55 | 225 | 5.0 | 17.0 | 0.02 | 0.02 | 0.02 | 89 | 1007.5 |
| 20260506214524 | 55 | 225 | 5.0 | 13.0 | 0.02 | 0.02 | 0.02 | 89 | 1007.6 |
| 20260506213521 | 55 | 225 | 4.0 | 12.0 | 0.02 | 0.02 | 0.02 | 89 | 1007.7 |
| 20260506212521 | 55 | 225 | 4.0 | 16.0 | 0.02 | 0.02 | 0.02 | 88 | 1007.8 |
| 20260506211526 | 55 | 248 | 7.0 | 17.0 | 0.01 | 0.01 | 0.01 | 87 | 1007.9 |
| 20260506210525 | 56 | 225 | 3.0 | 10.0 | 0.00 | 0.00 | 0.00 | 86 | 1008.0 |
| 20260506205519 | 56 | 225 | 4.0 | 14.0 | 0.00 | 0.00 | 0.00 | 86 | 1008.0 |
| 20260506204521 | 56 | 270 | 3.0 | 11.0 | 0.00 | 0.00 | 0.00 | 86 | 1008.0 |
| 20260506203521 | 56 | 225 | 3.0 | 10.0 | 0.00 | 0.00 | 0.00 | 86 | 1007.9 |
| 20260506202521 | 55 | 248 | 3.0 | 11.0 | 0.00 | 0.00 | 0.00 | 86 | 1007.7 |